Location: Austin
(30.3000°N, 97.7500°W)
Time: 03:21:17
(UTC-05:00)

ARGOS Delta rocket - Pass Details

Date: 01 October 2024
Orbit: 631 x 831 km, 96.5° (Epoch: 06 October)

Event Time Altitude Azimuth Distance (km) Brightness Sun altitude
Exits shadow 20:39:18 18° 154° (SSE) 1,661 5.4 -18.9°
Maximum altitude 20:42:41 62° 78° (ENE) 751 3.6 -19.6°
Drops below altitude 10° 20:47:05 10° 358° (N) 2,051 6.3 -20.6°
Sets 20:49:17 0° 355° (N) 2,948 7.2 -21.0°
